Simultaneous Nadir Overpasses (SNOs) Predictions

Prediction of SNOs between GOES-15 and NOAA-20 Satellite Orbit:

Table of predicted SNOs for the next 14.0 days since TLE Epoch: 9/4/2020
Index Date Time (GOES-15) GOES-15 Lat,Lon NOAA-20 Lat,Lon Distance(km) Time Diff (sec)
1 09/05/2020 22:04:28 0.08,-127.91 -0.28,-129.58 189.81 80
2 09/06/2020 21:43:03 0.08,-127.94 0.72,-125.05 330.27 80
3 09/08/2020 10:04:50 -0.08,-128.04 0.41,-130.32 259.19 80
4 09/09/2020 09:48:44 -0.08,-128.07 -0.60,-125.79 260.52 80
5 09/10/2020 22:10:40 0.09,-128.06 -0.60,-131.09 345.39 80
6 09/11/2020 21:49:14 0.09,-128.08 0.41,-126.55 173.73 80
7 09/13/2020 10:11:02 -0.10,-128.17 0.72,-131.83 417.37 80
8 09/14/2020 09:54:56 -0.10,-128.19 -0.28,-127.29 101.52 80
9 09/16/2020 21:55:27 0.11,-128.18 0.16,-128.07 13.71 80
